sat.trackr.live / text

‹ back to catalog

STARLINK-37103

NORAD 68267 · 2026-055F

PAYLOAD ACTIVE UNKNOWN

§ Identity

Operator
Country
US
Launch date
2026-03-19
Launch site
AFETR
Launch vehicle
Mass (kg)
RCS (m²)

Purposes: comms

External: N2YO · Heavens-Above · Gunter

§ Orbital elements

Epoch: 2026-09-19T08:50:14.734176Z

Period
93.85 min
Inclination
53.1597°
Eccentricity
0.0000311
Mean motion
15.34366384 rev/d
Perigee alt
462.6 km
Apogee alt
463.0 km
Semi-major
6,840.9 km
B*
5.0274e-4
RAAN
134.7111°
Arg perigee
79.4419°
Mean anomaly
280.6619°
Rev number
2,965

§ Raw data

STARLINK-371031 68267U 26055F   26262.36822609  .00016629  00000+0  50274-3 0  99952 68267  53.1597 134.7111 0000311  79.4419 280.6619 15.34366384 29655

JSON: /api/v1/satellites/68267 · /tle

For live sub-satellite position, see the globe view (requires WebGL).

§ Visibility from observer

Set your observer location to see the next 7 days of passes ≥ 10°. The values pass through the URL so the page stays shareable.

No JS? Fill the form by hand. The geolocation button needs JavaScript.